Year,Month,Day,Hour,Minute,Value (Times are PST for temperature in C)
2018,06,18,00,00,24.40
2018,06,18,00,01,24.30
2018,06,18,00,02,24.30
2018,06,18,00,03,24.20
2018,06,18,00,04,24.20
2018,06,18,00,05,24.20
2018,06,18,00,06,24.30
2018,06,18,00,07,24.30
2018,06,18,00,08,24.30
2018,06,18,00,09,24.30
2018,06,18,00,10,24.30
2018,06,18,00,11,24.30
2018,06,18,00,12,24.40
2018,06,18,00,13,24.40
2018,06,18,00,14,24.40
2018,06,18,00,15,24.40
2018,06,18,00,16,24.40
2018,06,18,00,17,24.40
2018,06,18,00,18,24.40
2018,06,18,00,19,24.40
2018,06,18,00,20,24.40
2018,06,18,00,21,24.40
2018,06,18,00,22,24.40
2018,06,18,00,23,24.40
2018,06,18,00,24,24.40
2018,06,18,00,25,24.40
2018,06,18,00,26,24.30
2018,06,18,00,27,24.20
2018,06,18,00,28,24.10
2018,06,18,00,29,24.00
2018,06,18,00,30,23.90
2018,06,18,00,31,23.80
2018,06,18,00,32,23.80
2018,06,18,00,33,23.70
2018,06,18,00,34,23.70
2018,06,18,00,35,23.70
2018,06,18,00,36,23.70
2018,06,18,00,37,23.70
2018,06,18,00,38,23.70
2018,06,18,00,39,23.70
2018,06,18,00,40,23.60
2018,06,18,00,41,23.50
2018,06,18,00,42,23.30
2018,06,18,00,43,23.20
2018,06,18,00,44,23.10
2018,06,18,00,45,23.10
2018,06,18,00,46,22.90
2018,06,18,00,47,22.90
2018,06,18,00,48,22.80
2018,06,18,00,49,22.80
2018,06,18,00,50,22.70
2018,06,18,00,51,22.50
2018,06,18,00,52,22.40
2018,06,18,00,53,22.30
2018,06,18,00,54,22.20
2018,06,18,00,55,22.20
2018,06,18,00,56,22.20
2018,06,18,00,57,22.20
2018,06,18,00,58,22.20
2018,06,18,00,59,22.20
2018,06,18,01,00,22.20
2018,06,18,01,01,22.30
2018,06,18,01,02,22.30
2018,06,18,01,03,22.20
2018,06,18,01,04,22.20
2018,06,18,01,05,22.20
2018,06,18,01,06,22.20
2018,06,18,01,07,22.20
2018,06,18,01,08,22.20
2018,06,18,01,09,22.20
2018,06,18,01,10,22.10
2018,06,18,01,11,22.00
2018,06,18,01,12,21.90
2018,06,18,01,13,21.90
2018,06,18,01,14,21.80
2018,06,18,01,15,21.70
2018,06,18,01,16,21.60
2018,06,18,01,17,21.50
2018,06,18,01,18,21.40
2018,06,18,01,19,21.40
2018,06,18,01,20,21.30
2018,06,18,01,21,21.40
2018,06,18,01,22,21.40
2018,06,18,01,23,21.40
2018,06,18,01,24,21.50
2018,06,18,01,25,21.60
2018,06,18,01,26,21.60
2018,06,18,01,27,21.60
2018,06,18,01,28,21.60
2018,06,18,01,29,21.60
2018,06,18,01,30,21.60
2018,06,18,01,31,21.60
2018,06,18,01,32,21.60
2018,06,18,01,33,21.60
2018,06,18,01,34,21.60
2018,06,18,01,35,21.70
2018,06,18,01,36,21.70
2018,06,18,01,37,21.80
2018,06,18,01,38,22.00
2018,06,18,01,39,22.20
2018,06,18,01,40,22.40
2018,06,18,01,41,22.50
2018,06,18,01,42,22.60
2018,06,18,01,43,22.70
2018,06,18,01,44,22.80
2018,06,18,01,45,22.90
2018,06,18,01,46,22.90
2018,06,18,01,47,23.00
2018,06,18,01,48,23.10
2018,06,18,01,49,23.20
2018,06,18,01,50,23.30
2018,06,18,01,51,23.30
2018,06,18,01,52,23.30
2018,06,18,01,53,23.30
2018,06,18,01,54,23.30
2018,06,18,01,55,23.30
2018,06,18,01,56,23.30
2018,06,18,01,57,23.30
2018,06,18,01,58,23.30
2018,06,18,01,59,23.30
2018,06,18,02,00,23.30
2018,06,18,02,01,23.20
2018,06,18,02,02,23.20
2018,06,18,02,03,23.20
2018,06,18,02,04,23.20
2018,06,18,02,05,23.20
2018,06,18,02,06,23.20
2018,06,18,02,07,23.20
2018,06,18,02,08,23.20
2018,06,18,02,09,23.10
2018,06,18,02,10,23.10
2018,06,18,02,11,23.10
2018,06,18,02,12,23.20
2018,06,18,02,13,23.20
2018,06,18,02,14,23.20
2018,06,18,02,15,23.20
2018,06,18,02,16,23.20
2018,06,18,02,17,23.20
2018,06,18,02,18,23.20
2018,06,18,02,19,23.10
2018,06,18,02,20,23.10
2018,06,18,02,21,23.10
2018,06,18,02,22,23.10
2018,06,18,02,23,23.00
2018,06,18,02,24,23.00
2018,06,18,02,25,23.00
2018,06,18,02,26,23.00
2018,06,18,02,27,23.10
2018,06,18,02,28,23.10
2018,06,18,02,29,23.10
2018,06,18,02,30,23.10
2018,06,18,02,31,23.00
2018,06,18,02,32,23.10
2018,06,18,02,33,23.00
2018,06,18,02,34,23.00
2018,06,18,02,35,23.00
2018,06,18,02,36,22.90
2018,06,18,02,37,22.90
2018,06,18,02,38,22.90
2018,06,18,02,39,22.90
2018,06,18,02,40,22.90
2018,06,18,02,41,22.90
2018,06,18,02,42,22.90
2018,06,18,02,43,23.00
2018,06,18,02,44,23.10
2018,06,18,02,45,23.10
2018,06,18,02,46,23.10
2018,06,18,02,47,23.10
2018,06,18,02,48,23.20
2018,06,18,02,49,23.20
2018,06,18,02,50,23.20
2018,06,18,02,51,23.10
2018,06,18,02,52,23.10
2018,06,18,02,53,23.00
2018,06,18,02,54,23.00
2018,06,18,02,55,22.90
2018,06,18,02,56,22.80
2018,06,18,02,57,22.80
2018,06,18,02,58,22.70
2018,06,18,02,59,22.70
2018,06,18,03,00,22.60
2018,06,18,03,01,22.60
2018,06,18,03,02,22.60
2018,06,18,03,03,22.50
2018,06,18,03,04,22.40
2018,06,18,03,05,22.40
2018,06,18,03,06,22.30
2018,06,18,03,07,22.20
2018,06,18,03,08,22.20
2018,06,18,03,09,22.10
2018,06,18,03,10,22.00
2018,06,18,03,11,21.90
2018,06,18,03,12,21.90
2018,06,18,03,13,21.90
2018,06,18,03,14,21.90
2018,06,18,03,15,21.80
2018,06,18,03,16,21.80
2018,06,18,03,17,21.80
2018,06,18,03,18,21.80
2018,06,18,03,19,21.70
2018,06,18,03,20,21.70
2018,06,18,03,21,21.70
2018,06,18,03,22,21.70
2018,06,18,03,23,21.60
2018,06,18,03,24,21.60
2018,06,18,03,25,21.50
2018,06,18,03,26,21.50
2018,06,18,03,27,21.40
2018,06,18,03,28,21.30
2018,06,18,03,29,21.20
2018,06,18,03,30,21.10
2018,06,18,03,31,20.90
2018,06,18,03,32,20.70
2018,06,18,03,33,20.60
2018,06,18,03,34,20.40
2018,06,18,03,35,20.30
2018,06,18,03,36,20.20
2018,06,18,03,37,20.10
2018,06,18,03,38,20.00
2018,06,18,03,39,20.00
2018,06,18,03,40,20.00
2018,06,18,03,41,20.00
2018,06,18,03,42,20.00
2018,06,18,03,43,20.00
2018,06,18,03,44,20.00
2018,06,18,03,45,20.00
2018,06,18,03,46,20.00
2018,06,18,03,47,20.00
2018,06,18,03,48,20.00
2018,06,18,03,49,20.00
2018,06,18,03,50,20.10
2018,06,18,03,51,20.10
2018,06,18,03,52,20.10
2018,06,18,03,53,20.10
2018,06,18,03,54,20.10
2018,06,18,03,55,20.10
2018,06,18,03,56,20.00
2018,06,18,03,57,20.00
2018,06,18,03,58,20.00
2018,06,18,03,59,19.90
2018,06,18,04,00,19.90
2018,06,18,04,01,19.90
2018,06,18,04,02,19.80
2018,06,18,04,03,19.80
2018,06,18,04,04,19.70
2018,06,18,04,05,19.60
2018,06,18,04,06,19.60
2018,06,18,04,07,19.60
2018,06,18,04,08,19.50
2018,06,18,04,09,19.50
2018,06,18,04,10,19.40
2018,06,18,04,11,19.40
2018,06,18,04,12,19.40
2018,06,18,04,13,19.30
2018,06,18,04,14,19.30
2018,06,18,04,15,19.30
2018,06,18,04,16,19.40
2018,06,18,04,17,19.40
2018,06,18,04,18,19.50
2018,06,18,04,19,19.50
2018,06,18,04,20,19.60
2018,06,18,04,21,19.60
2018,06,18,04,22,19.60
2018,06,18,04,23,19.60
2018,06,18,04,24,19.60
2018,06,18,04,25,19.60
2018,06,18,04,26,19.50
2018,06,18,04,27,19.50
2018,06,18,04,28,19.40
2018,06,18,04,29,19.40
2018,06,18,04,30,19.50
2018,06,18,04,31,19.50
2018,06,18,04,32,19.50
2018,06,18,04,33,19.50
2018,06,18,04,34,19.60
2018,06,18,04,35,19.60
2018,06,18,04,36,19.60
2018,06,18,04,37,19.70
2018,06,18,04,38,19.70
2018,06,18,04,39,19.70
2018,06,18,04,40,19.70
2018,06,18,04,41,19.80
2018,06,18,04,42,19.80
2018,06,18,04,43,19.80
2018,06,18,04,44,19.80
2018,06,18,04,45,19.80
2018,06,18,04,46,19.90
2018,06,18,04,47,19.90
2018,06,18,04,48,19.90
2018,06,18,04,49,19.90
2018,06,18,04,50,19.90
2018,06,18,04,51,19.90
2018,06,18,04,52,19.90
2018,06,18,04,53,19.90
2018,06,18,04,54,19.90
2018,06,18,04,55,19.90
2018,06,18,04,56,20.00
2018,06,18,04,57,20.00
2018,06,18,04,58,20.00
2018,06,18,04,59,20.00
2018,06,18,05,00,19.90
2018,06,18,05,01,19.90
2018,06,18,05,02,19.90
2018,06,18,05,03,19.80
2018,06,18,05,04,19.70
2018,06,18,05,05,19.60
2018,06,18,05,06,19.50
2018,06,18,05,07,19.40
2018,06,18,05,08,19.30
2018,06,18,05,09,19.20
2018,06,18,05,10,19.20
2018,06,18,05,11,19.20
2018,06,18,05,12,19.20
2018,06,18,05,13,19.20
2018,06,18,05,14,19.20
2018,06,18,05,15,19.30
2018,06,18,05,16,19.20
2018,06,18,05,17,19.20
2018,06,18,05,18,19.20
2018,06,18,05,19,19.10
2018,06,18,05,20,19.10
2018,06,18,05,21,19.00
2018,06,18,05,22,18.90
2018,06,18,05,23,18.80
2018,06,18,05,24,18.70
2018,06,18,05,25,18.50
2018,06,18,05,26,18.40
2018,06,18,05,27,18.20
2018,06,18,05,28,18.00
2018,06,18,05,29,17.90
2018,06,18,05,30,17.70
2018,06,18,05,31,17.60
2018,06,18,05,32,17.40
2018,06,18,05,33,17.30
2018,06,18,05,34,17.20
2018,06,18,05,35,17.20
2018,06,18,05,36,17.10
2018,06,18,05,37,17.10
2018,06,18,05,38,17.20
2018,06,18,05,39,17.20
2018,06,18,05,40,17.30
2018,06,18,05,41,17.50
2018,06,18,05,42,17.60
2018,06,18,05,43,17.80
2018,06,18,05,44,18.10
2018,06,18,05,45,18.30
2018,06,18,05,46,18.50
2018,06,18,05,47,18.70
2018,06,18,05,48,18.80
2018,06,18,05,49,18.90
2018,06,18,05,50,19.00
2018,06,18,05,51,19.10
2018,06,18,05,52,19.10
2018,06,18,05,53,19.10
2018,06,18,05,54,19.20
2018,06,18,05,55,19.20
2018,06,18,05,56,19.20
2018,06,18,05,57,19.20
2018,06,18,05,58,19.20
2018,06,18,05,59,19.20
2018,06,18,06,00,19.20
2018,06,18,06,01,19.10
2018,06,18,06,02,19.10
2018,06,18,06,03,19.10
2018,06,18,06,04,19.10
2018,06,18,06,05,19.00
2018,06,18,06,06,19.00
2018,06,18,06,07,19.00
2018,06,18,06,08,19.00
2018,06,18,06,09,19.00
2018,06,18,06,10,19.00
2018,06,18,06,11,19.10
2018,06,18,06,12,19.20
2018,06,18,06,13,19.30
2018,06,18,06,14,19.40
2018,06,18,06,15,19.40
2018,06,18,06,16,19.50
2018,06,18,06,17,19.50
2018,06,18,06,18,19.60
2018,06,18,06,19,19.60
2018,06,18,06,20,19.60
2018,06,18,06,21,19.70
2018,06,18,06,22,19.70
2018,06,18,06,23,19.70
2018,06,18,06,24,19.70
2018,06,18,06,25,19.70
2018,06,18,06,26,19.70
2018,06,18,06,27,19.80
2018,06,18,06,28,19.80
2018,06,18,06,29,19.80
2018,06,18,06,30,19.80
2018,06,18,06,31,19.80
2018,06,18,06,32,19.90
2018,06,18,06,33,19.90
2018,06,18,06,34,19.90
2018,06,18,06,35,20.00
2018,06,18,06,36,20.00
2018,06,18,06,37,20.00
2018,06,18,06,38,20.00
2018,06,18,06,39,20.10
2018,06,18,06,40,20.10
2018,06,18,06,41,20.10
2018,06,18,06,42,20.10
2018,06,18,06,43,20.10
2018,06,18,06,44,20.10
2018,06,18,06,45,20.10
2018,06,18,06,46,20.00
2018,06,18,06,47,20.00
2018,06,18,06,48,20.00
2018,06,18,06,49,20.00
2018,06,18,06,50,19.90
2018,06,18,06,51,19.90
2018,06,18,06,52,19.90
2018,06,18,06,53,19.90
2018,06,18,06,54,20.00
2018,06,18,06,55,20.00
2018,06,18,06,56,20.00
2018,06,18,06,57,20.10
2018,06,18,06,58,20.10
2018,06,18,06,59,20.10
2018,06,18,07,00,20.20
2018,06,18,07,01,20.20
2018,06,18,07,02,20.20
2018,06,18,07,03,20.30
2018,06,18,07,04,20.30
2018,06,18,07,05,20.30
2018,06,18,07,06,20.40
2018,06,18,07,07,20.40
2018,06,18,07,08,20.40
2018,06,18,07,09,20.50
2018,06,18,07,10,20.50
2018,06,18,07,11,20.60
2018,06,18,07,12,20.60
2018,06,18,07,13,20.70
2018,06,18,07,14,20.70
2018,06,18,07,15,20.80
2018,06,18,07,16,20.80
2018,06,18,07,17,20.80
2018,06,18,07,18,20.90
2018,06,18,07,19,21.00
2018,06,18,07,20,21.00
2018,06,18,07,21,21.00
2018,06,18,07,22,21.10
2018,06,18,07,23,21.10
2018,06,18,07,24,21.20
2018,06,18,07,25,21.20
2018,06,18,07,26,21.20
2018,06,18,07,27,21.20
2018,06,18,07,28,21.30
2018,06,18,07,29,21.30
2018,06,18,07,30,21.40
2018,06,18,07,31,21.40
2018,06,18,07,32,21.40
2018,06,18,07,33,21.50
2018,06,18,07,34,21.60
2018,06,18,07,35,21.60
2018,06,18,07,36,21.70
2018,06,18,07,37,21.70
2018,06,18,07,38,21.80
2018,06,18,07,39,21.80
2018,06,18,07,40,21.90
2018,06,18,07,41,22.00
2018,06,18,07,42,22.10
2018,06,18,07,43,22.20
2018,06,18,07,44,22.30
2018,06,18,07,45,22.40
2018,06,18,07,46,22.50
2018,06,18,07,47,22.60
2018,06,18,07,48,22.60
2018,06,18,07,49,22.70
2018,06,18,07,50,22.80
2018,06,18,07,51,22.90
2018,06,18,07,52,23.00
2018,06,18,07,53,23.10
2018,06,18,07,54,23.10
2018,06,18,07,55,23.20
2018,06,18,07,56,23.20
2018,06,18,07,57,23.30
2018,06,18,07,58,23.30
2018,06,18,07,59,23.30
2018,06,18,08,00,23.40
2018,06,18,08,01,23.40
2018,06,18,08,02,23.40
2018,06,18,08,03,23.40
2018,06,18,08,04,23.40
2018,06,18,08,05,23.40
2018,06,18,08,06,23.50
2018,06,18,08,07,23.50
2018,06,18,08,08,23.50
2018,06,18,08,09,23.50
2018,06,18,08,10,23.50
2018,06,18,08,11,23.50
2018,06,18,08,12,23.60
2018,06,18,08,13,23.60
2018,06,18,08,14,23.60
2018,06,18,08,15,23.70
2018,06,18,08,16,23.70
2018,06,18,08,17,23.80
2018,06,18,08,18,23.80
2018,06,18,08,19,23.90
2018,06,18,08,20,23.90
2018,06,18,08,21,24.00
2018,06,18,08,22,24.00
2018,06,18,08,23,24.00
2018,06,18,08,24,24.10
2018,06,18,08,25,24.10
2018,06,18,08,26,24.20
2018,06,18,08,27,24.20
2018,06,18,08,28,24.20
2018,06,18,08,29,24.20
2018,06,18,08,30,24.20
2018,06,18,08,31,24.30
2018,06,18,08,32,24.30
2018,06,18,08,33,24.40
2018,06,18,08,34,24.50
2018,06,18,08,35,24.60
2018,06,18,08,36,24.70
2018,06,18,08,37,24.80
2018,06,18,08,38,24.90
2018,06,18,08,39,25.00
2018,06,18,08,40,25.10
2018,06,18,08,41,25.20
2018,06,18,08,42,25.20
2018,06,18,08,43,25.30
2018,06,18,08,44,25.40
2018,06,18,08,45,25.40
2018,06,18,08,46,25.40
2018,06,18,08,47,25.40
2018,06,18,08,48,25.50
2018,06,18,08,49,25.50
2018,06,18,08,50,25.50
2018,06,18,08,51,25.50
2018,06,18,08,52,25.50
2018,06,18,08,53,25.50
2018,06,18,08,54,25.40
2018,06,18,08,55,25.40
2018,06,18,08,56,25.40
2018,06,18,08,57,25.40
2018,06,18,08,58,25.40
2018,06,18,08,59,25.40
2018,06,18,09,00,25.30
2018,06,18,09,01,25.30
2018,06,18,09,02,25.30
2018,06,18,09,03,25.30
2018,06,18,09,04,25.30
2018,06,18,09,05,25.40
2018,06,18,09,06,25.40
2018,06,18,09,07,25.40
2018,06,18,09,08,25.40
2018,06,18,09,09,25.40
2018,06,18,09,10,25.40
2018,06,18,09,11,25.40
2018,06,18,09,12,25.40
2018,06,18,09,13,25.40
2018,06,18,09,14,25.40
2018,06,18,09,15,25.50
2018,06,18,09,16,25.40
2018,06,18,09,17,25.40
2018,06,18,09,18,25.30
2018,06,18,09,19,25.20
2018,06,18,09,20,25.20
2018,06,18,09,21,25.20
2018,06,18,09,22,25.20
2018,06,18,09,23,25.20
2018,06,18,09,24,25.30
2018,06,18,09,25,25.30
2018,06,18,09,26,25.30
2018,06,18,09,27,25.40
2018,06,18,09,28,25.50
2018,06,18,09,29,25.50
2018,06,18,09,30,25.60
2018,06,18,09,31,25.60
2018,06,18,09,32,25.70
2018,06,18,09,33,25.70
2018,06,18,09,34,25.70
2018,06,18,09,35,25.70
2018,06,18,09,36,25.70
2018,06,18,09,37,25.70
2018,06,18,09,38,25.70
2018,06,18,09,39,25.80
2018,06,18,09,40,25.80
2018,06,18,09,41,25.70
2018,06,18,09,42,25.70
2018,06,18,09,43,25.70
2018,06,18,09,44,25.70
2018,06,18,09,45,25.60
2018,06,18,09,46,25.60
2018,06,18,09,47,25.60
2018,06,18,09,48,25.60
2018,06,18,09,49,25.60
2018,06,18,09,50,25.60
2018,06,18,09,51,25.70
2018,06,18,09,52,25.70
2018,06,18,09,53,25.80
2018,06,18,09,54,25.80
2018,06,18,09,55,25.90
2018,06,18,09,56,25.90
2018,06,18,09,57,25.90
2018,06,18,09,58,25.90
2018,06,18,09,59,25.90
2018,06,18,10,00,25.90
2018,06,18,10,01,26.00
2018,06,18,10,02,26.10
2018,06,18,10,03,26.10
2018,06,18,10,04,26.20
2018,06,18,10,05,26.20
2018,06,18,10,06,26.20
2018,06,18,10,07,26.30
2018,06,18,10,08,26.30
2018,06,18,10,09,26.40
2018,06,18,10,10,26.50
2018,06,18,10,11,26.50
2018,06,18,10,12,26.50
2018,06,18,10,13,26.50
2018,06,18,10,14,26.60
2018,06,18,10,15,26.60
2018,06,18,10,16,26.60
2018,06,18,10,17,26.70
2018,06,18,10,18,26.80
2018,06,18,10,19,26.80
2018,06,18,10,20,26.80
2018,06,18,10,21,26.90
2018,06,18,10,22,26.90
2018,06,18,10,23,27.00
2018,06,18,10,24,27.00
2018,06,18,10,25,27.00
2018,06,18,10,26,27.10
2018,06,18,10,27,27.20
2018,06,18,10,28,27.20
2018,06,18,10,29,27.20
2018,06,18,10,30,27.10
2018,06,18,10,31,27.20
2018,06,18,10,32,27.20
2018,06,18,10,33,27.30
2018,06,18,10,34,27.30
2018,06,18,10,35,27.40
2018,06,18,10,36,27.40
2018,06,18,10,37,27.50
2018,06,18,10,38,27.60
2018,06,18,10,39,27.60
2018,06,18,10,40,27.70
2018,06,18,10,41,27.70
2018,06,18,10,42,27.70
2018,06,18,10,43,27.70
2018,06,18,10,44,27.70
2018,06,18,10,45,27.60
2018,06,18,10,46,27.60
2018,06,18,10,47,27.60
2018,06,18,10,48,27.70
2018,06,18,10,49,27.70
2018,06,18,10,50,27.70
2018,06,18,10,51,27.70
2018,06,18,10,52,27.80
2018,06,18,10,53,27.80
2018,06,18,10,54,27.90
2018,06,18,10,55,27.90
2018,06,18,10,56,28.00
2018,06,18,10,57,28.00
2018,06,18,10,58,28.10
2018,06,18,10,59,28.20
2018,06,18,11,00,28.20
2018,06,18,11,01,28.30
2018,06,18,11,02,28.30
2018,06,18,11,03,28.30
2018,06,18,11,04,28.30
2018,06,18,11,05,28.40
2018,06,18,11,06,28.30
2018,06,18,11,07,28.20
2018,06,18,11,08,28.10
2018,06,18,11,09,28.00
2018,06,18,11,10,27.90
2018,06,18,11,11,27.80
2018,06,18,11,12,27.90
2018,06,18,11,13,27.80
2018,06,18,11,14,27.90
2018,06,18,11,15,28.00
2018,06,18,11,16,28.00
2018,06,18,11,17,28.10
2018,06,18,11,18,28.10
2018,06,18,11,19,28.10
2018,06,18,11,20,28.00
2018,06,18,11,21,27.80
2018,06,18,11,22,27.60
2018,06,18,11,23,27.40
2018,06,18,11,24,27.20
2018,06,18,11,25,27.00
2018,06,18,11,26,26.90
2018,06,18,11,27,26.70
2018,06,18,11,28,26.40
2018,06,18,11,29,26.20
2018,06,18,11,30,26.10
2018,06,18,11,31,26.10
2018,06,18,11,32,26.20
2018,06,18,11,33,26.20
2018,06,18,11,34,26.20
2018,06,18,11,35,26.10
2018,06,18,11,36,25.90
2018,06,18,11,37,26.00
2018,06,18,11,38,26.00
2018,06,18,11,39,26.00
2018,06,18,11,40,26.00
2018,06,18,11,41,25.90
2018,06,18,11,42,26.00
2018,06,18,11,43,26.10
2018,06,18,11,44,26.10
2018,06,18,11,45,26.20
2018,06,18,11,46,26.20
2018,06,18,11,47,26.30
2018,06,18,11,48,26.30
2018,06,18,11,49,26.10
2018,06,18,11,50,26.00
2018,06,18,11,51,25.90
2018,06,18,11,52,25.80
2018,06,18,11,53,25.60
2018,06,18,11,54,25.60
2018,06,18,11,55,25.50
2018,06,18,11,56,25.50
2018,06,18,11,57,25.40
2018,06,18,11,58,25.40
2018,06,18,11,59,25.40
2018,06,18,12,00,25.50
2018,06,18,12,01,25.70
2018,06,18,12,02,25.80
2018,06,18,12,03,25.80
2018,06,18,12,04,25.80
2018,06,18,12,05,25.90
2018,06,18,12,06,25.90
2018,06,18,12,07,26.00
2018,06,18,12,08,26.00
2018,06,18,12,09,26.10
2018,06,18,12,10,26.10
2018,06,18,12,11,26.20
2018,06,18,12,12,26.20
2018,06,18,12,13,26.30
2018,06,18,12,14,26.30
2018,06,18,12,15,26.40
2018,06,18,12,16,26.40
2018,06,18,12,17,26.60
2018,06,18,12,18,26.70
2018,06,18,12,19,26.70
2018,06,18,12,20,26.70
2018,06,18,12,21,26.70
2018,06,18,12,22,26.60
2018,06,18,12,23,26.60
2018,06,18,12,24,26.60
2018,06,18,12,25,26.60
2018,06,18,12,26,26.70
2018,06,18,12,27,26.80
2018,06,18,12,28,26.90
2018,06,18,12,29,26.90
2018,06,18,12,30,26.90
2018,06,18,12,31,26.90
2018,06,18,12,32,27.00
2018,06,18,12,33,27.20
2018,06,18,12,34,27.30
2018,06,18,12,35,27.40
2018,06,18,12,36,27.50
2018,06,18,12,37,27.50
2018,06,18,12,38,27.60
2018,06,18,12,39,27.60
2018,06,18,12,40,27.40
2018,06,18,12,41,27.40
2018,06,18,12,42,27.40
2018,06,18,12,43,27.40
2018,06,18,12,44,27.40
2018,06,18,12,45,27.50
2018,06,18,12,46,27.50
2018,06,18,12,47,27.40
2018,06,18,12,48,27.40
2018,06,18,12,49,27.40
2018,06,18,12,50,27.50
2018,06,18,12,51,27.50
2018,06,18,12,52,27.60
2018,06,18,12,53,27.70
2018,06,18,12,54,27.90
2018,06,18,12,55,28.00
2018,06,18,12,56,28.10
2018,06,18,12,57,28.20
2018,06,18,12,58,28.30
2018,06,18,12,59,28.10
2018,06,18,13,00,27.80
2018,06,18,13,01,27.50
2018,06,18,13,02,27.40
2018,06,18,13,03,27.40
2018,06,18,13,04,27.50
2018,06,18,13,05,27.50
2018,06,18,13,06,27.50
2018,06,18,13,07,27.60
2018,06,18,13,08,27.60
2018,06,18,13,09,27.70
2018,06,18,13,10,27.60
2018,06,18,13,11,27.50
2018,06,18,13,12,27.50
2018,06,18,13,13,27.60
2018,06,18,13,14,27.70
2018,06,18,13,15,27.80
2018,06,18,13,16,27.70
2018,06,18,13,17,27.80
2018,06,18,13,18,27.80
2018,06,18,13,19,27.90
2018,06,18,13,20,28.10
2018,06,18,13,21,28.20
2018,06,18,13,22,28.30
2018,06,18,13,23,28.40
2018,06,18,13,24,28.50
2018,06,18,13,25,28.70
2018,06,18,13,26,28.80
2018,06,18,13,27,28.90
2018,06,18,13,28,28.90
2018,06,18,13,29,28.90
2018,06,18,13,30,28.80
2018,06,18,13,31,28.70
2018,06,18,13,32,28.70
2018,06,18,13,33,28.70
2018,06,18,13,34,28.70
2018,06,18,13,35,28.70
2018,06,18,13,36,28.70
2018,06,18,13,37,28.60
2018,06,18,13,38,28.60
2018,06,18,13,39,28.60
2018,06,18,13,40,28.70
2018,06,18,13,41,28.80
2018,06,18,13,42,29.00
2018,06,18,13,43,29.00
2018,06,18,13,44,28.90
2018,06,18,13,45,28.90
2018,06,18,13,46,28.90
2018,06,18,13,47,28.90
2018,06,18,13,48,29.00
2018,06,18,13,49,29.10
2018,06,18,13,50,29.30
2018,06,18,13,51,29.40
2018,06,18,13,52,29.40
2018,06,18,13,53,29.40
2018,06,18,13,54,29.50
2018,06,18,13,55,29.60
2018,06,18,13,56,29.70
2018,06,18,13,57,29.80
2018,06,18,13,58,29.80
2018,06,18,13,59,29.80
2018,06,18,14,00,29.70
2018,06,18,14,01,29.60
2018,06,18,14,02,29.50
2018,06,18,14,03,29.40
2018,06,18,14,04,29.40
2018,06,18,14,05,29.50
2018,06,18,14,06,29.50
2018,06,18,14,07,29.60
2018,06,18,14,08,29.70
2018,06,18,14,09,29.90
2018,06,18,14,10,30.00
2018,06,18,14,11,30.10
2018,06,18,14,12,30.20
2018,06,18,14,13,30.10
2018,06,18,14,14,30.00
2018,06,18,14,15,30.00
2018,06,18,14,16,30.00
2018,06,18,14,17,30.00
2018,06,18,14,18,30.00
2018,06,18,14,19,29.90
2018,06,18,14,20,29.70
2018,06,18,14,21,29.60
2018,06,18,14,22,29.50
2018,06,18,14,23,29.40
2018,06,18,14,24,29.40
2018,06,18,14,25,29.40
2018,06,18,14,26,29.40
2018,06,18,14,27,29.40
2018,06,18,14,28,29.40
2018,06,18,14,29,29.50
2018,06,18,14,30,29.60
2018,06,18,14,31,29.60
2018,06,18,14,32,29.70
2018,06,18,14,33,29.70
2018,06,18,14,34,29.80
2018,06,18,14,35,29.80
2018,06,18,14,36,29.90
2018,06,18,14,37,29.90
2018,06,18,14,38,30.00
2018,06,18,14,39,30.10
2018,06,18,14,40,30.20
2018,06,18,14,41,30.20
2018,06,18,14,42,30.20
2018,06,18,14,43,30.30
2018,06,18,14,44,30.30
2018,06,18,14,45,30.20
2018,06,18,14,46,30.30
2018,06,18,14,47,30.30
2018,06,18,14,48,30.40
2018,06,18,14,49,30.30
2018,06,18,14,50,30.30
2018,06,18,14,51,30.30
2018,06,18,14,52,30.30
2018,06,18,14,53,30.30
2018,06,18,14,54,30.20
2018,06,18,14,55,30.20
2018,06,18,14,56,30.10
2018,06,18,14,57,29.90
2018,06,18,14,58,29.80
2018,06,18,14,59,29.80
2018,06,18,15,00,29.80
2018,06,18,15,01,29.80
2018,06,18,15,02,29.80
2018,06,18,15,03,29.80
2018,06,18,15,04,29.90
2018,06,18,15,05,29.90
2018,06,18,15,06,30.00
2018,06,18,15,07,30.10
2018,06,18,15,08,30.20
2018,06,18,15,09,30.40
2018,06,18,15,10,30.60
2018,06,18,15,11,30.70
2018,06,18,15,12,30.80
2018,06,18,15,13,30.80
2018,06,18,15,14,30.90
2018,06,18,15,15,30.90
2018,06,18,15,16,30.80
2018,06,18,15,17,30.70
2018,06,18,15,18,30.60
2018,06,18,15,19,30.60
2018,06,18,15,20,30.60
2018,06,18,15,21,30.50
2018,06,18,15,22,30.30
2018,06,18,15,23,30.30
2018,06,18,15,24,30.20
2018,06,18,15,25,30.30
2018,06,18,15,26,30.30
2018,06,18,15,27,30.30
2018,06,18,15,28,30.40
2018,06,18,15,29,30.60
2018,06,18,15,30,30.70
2018,06,18,15,31,30.80
2018,06,18,15,32,31.00
2018,06,18,15,33,31.10
2018,06,18,15,34,31.20
2018,06,18,15,35,31.20
2018,06,18,15,36,31.20
2018,06,18,15,37,31.20
2018,06,18,15,38,31.20
2018,06,18,15,39,31.10
2018,06,18,15,40,31.00
2018,06,18,15,41,31.00
2018,06,18,15,42,30.90
2018,06,18,15,43,30.90
2018,06,18,15,44,31.00
2018,06,18,15,45,31.00
2018,06,18,15,46,31.00
2018,06,18,15,47,31.10
2018,06,18,15,48,31.20
2018,06,18,15,49,31.30
2018,06,18,15,50,31.20
2018,06,18,15,51,31.20
2018,06,18,15,52,31.20
2018,06,18,15,53,31.20
2018,06,18,15,54,31.20
2018,06,18,15,55,31.20
2018,06,18,15,56,31.20
2018,06,18,15,57,31.20
2018,06,18,15,58,31.10
2018,06,18,15,59,31.10
2018,06,18,16,00,31.10
2018,06,18,16,01,31.10
2018,06,18,16,02,31.10
2018,06,18,16,03,31.20
2018,06,18,16,04,31.20
2018,06,18,16,05,31.30
2018,06,18,16,06,31.30
2018,06,18,16,07,31.50
2018,06,18,16,08,31.60
2018,06,18,16,09,31.60
2018,06,18,16,10,31.70
2018,06,18,16,11,31.70
2018,06,18,16,12,31.70
2018,06,18,16,13,31.70
2018,06,18,16,14,31.70
2018,06,18,16,15,31.60
2018,06,18,16,16,31.60
2018,06,18,16,17,31.50
2018,06,18,16,18,31.50
2018,06,18,16,19,31.40
2018,06,18,16,20,31.40
2018,06,18,16,21,31.40
2018,06,18,16,22,31.50
2018,06,18,16,23,31.60
2018,06,18,16,24,31.70
2018,06,18,16,25,31.70
2018,06,18,16,26,31.80
2018,06,18,16,27,31.80
2018,06,18,16,28,31.80
2018,06,18,16,29,31.70
2018,06,18,16,30,31.60
2018,06,18,16,31,31.60
2018,06,18,16,32,31.60
2018,06,18,16,33,31.60
2018,06,18,16,34,31.60
2018,06,18,16,35,31.60
2018,06,18,16,36,31.60
2018,06,18,16,37,31.60
2018,06,18,16,38,31.70
2018,06,18,16,39,31.70
2018,06,18,16,40,31.80
2018,06,18,16,41,31.80
2018,06,18,16,42,31.80
2018,06,18,16,43,31.80
2018,06,18,16,44,31.80
2018,06,18,16,45,31.80
2018,06,18,16,46,31.80
2018,06,18,16,47,31.90
2018,06,18,16,48,31.90
2018,06,18,16,49,31.90
2018,06,18,16,50,32.00
2018,06,18,16,51,32.00
2018,06,18,16,52,32.00
2018,06,18,16,53,32.10
2018,06,18,16,54,32.10
2018,06,18,16,55,32.10
2018,06,18,16,56,32.10
2018,06,18,16,57,32.10
2018,06,18,16,58,32.10
2018,06,18,16,59,32.00
2018,06,18,17,00,32.00
2018,06,18,17,01,31.90
2018,06,18,17,02,31.90
2018,06,18,17,03,31.80
2018,06,18,17,04,31.80
2018,06,18,17,05,31.80
2018,06,18,17,06,31.80
2018,06,18,17,07,31.90
2018,06,18,17,08,32.00
2018,06,18,17,09,32.00
2018,06,18,17,10,32.10
2018,06,18,17,11,32.10
2018,06,18,17,12,32.10
2018,06,18,17,13,32.10
2018,06,18,17,14,32.10
2018,06,18,17,15,32.10
2018,06,18,17,16,32.10
2018,06,18,17,17,32.10
2018,06,18,17,18,32.20
2018,06,18,17,19,32.30